Location: Bethany Fellowship Church
(32.6216°N, 97.3708°W)
Time: 11:08:53
(UTC+00:00)

COSMOS 2455 - Pass Details

Date: 11 December 2025
Orbit: 898 x 910 km, 67.1° (Epoch: 18 January)

Event Time Altitude Azimuth Distance (km) Brightness Sun altitude
Exits shadow 12:47:28 - 294° (WNW) 2,709 4.6 -7.4°
Reaches altitude 10° 12:48:02 10° 290° (WNW) 2,591 4.5 -7.2°
Maximum altitude 12:51:12 15° 257° (WSW) 2,258 4.5 -6.6°
Drops below altitude 10° 12:54:22 10° 225° (SW) 2,580 5.0 -6.0°
Sets 12:58:02 0° 203° (SSW) 3,514 5.9 -5.3°
